Regional Weather Roundup
Issued by NWS

Home | Current Version | Previous Version | Text Only | Print | Product List | Glossary On
Versions: 1 2 3 4 5 6 7 8 9 10 11 12 13 14 15 16 17 18 19 20 21 22 23 24 25 26 27 28 29 30 31 32 33 34 35 36 37 38 39 40 41 42 43 44 45 46 47 48 49 50
231
ASUS43 KOAX 211010
RWRNE

WEATHER ROUNDUP FOR NEBRASKA
NATIONAL WEATHER SERVICE OMAHA NE
400 AM CST TUE FEB 21 2017

NOTES: SATELLITE DATA IS BEING USED TO AUGMENT CLOUD COVER ABOVE
       12000 FEET.
       "FAIR" INDICATES FEW OR NO CLOUDS BELOW 12,000 FEET WITH NO
       SIGNIFICANT WEATHER AND/OR OBSTRUCTIONS TO VISIBILITY.

  * THESE STATIONS DO NOT REPORT WEATHER SUCH AS RAIN...SNOW OR FOG.

NEZ001>004-019>022-054>056-211100-
NEBRASKA PANHANDLE

CITY           SKY/WX    TMP DP  RH WIND       PRES   REMARKS
SCOTTSBLUFF    CLEAR     34  22  61 N9        29.94R WCI  27
ALLIANCE       CLOUDY    32  23  69 SW8       29.90F WCI  25
CHADRON        CLEAR     39  26  59 CALM      29.86S
KIMBALL        CLOUDY    33  21  61 W8        29.98R WCI  26
SIDNEY         CLOUDY    37  16  42 W9        29.96R WCI  30
$$

NEZ057>060-069>072-079>082-211100-
SOUTHWEST NEBRASKA

CITY           SKY/WX    TMP DP  RH WIND       PRES   REMARKS
NORTH PLATTE   CLEAR     29  21  72 SE3       29.96S
IMPERIAL       CLOUDY    34  18  52 SW9       29.96F WCI  27
LEXINGTON      CLOUDY    29  24  84 CALM      29.97S
MCCOOK         CLOUDY    29  23  78 S3        29.98F
OGALLALA       CLEAR     35  20  54 SW7       29.95S WCI  29
$$

NEZ005>010-023>029-035>040-094-211100-
NORTH CENTRAL NEBRASKA

CITY           SKY/WX    TMP DP  RH WIND       PRES   REMARKS
VALENTINE      PTCLDY    44  23  43 SW13      29.85F
AINSWORTH      CLOUDY    43  24  47 SW14      29.87S
BROKEN BOW     CLEAR     34  27  75 CALM      29.94F
O`NEILL        CLEAR     40  32  74 SW10      29.89F WCI  33
ORD            CLEAR     28  25  88 S5        29.93S WCI  23
THEDFORD       PTCLDY    42  21  42 SW5       29.92S
$$

NEZ041-046>049-061>064-073>077-083>087-211100-
SOUTH CENTRAL NEBRASKA

CITY           SKY/WX    TMP DP  RH WIND       PRES   REMARKS
GRAND ISLAND   CLEAR     36  32  85 SW7       29.97S WCI  30
AURORA         CLEAR     37  33  87 SW9       29.97S WCI  30
HASTINGS       CLEAR     39  31  72 SW5       29.99R
HEBRON         CLEAR     31  30  95 CALM      30.00R
HOLDREGE       CLOUDY    38  26  61 SW6       29.98S WCI  34
KEARNEY *      CLEAR     37  27  65 SW7       29.97F WCI  32
YORK           CLEAR     34  32  93 W8        29.97S WCI  27
$$

NEZ011>018-030>034-042>045-211100-
NORTHEAST NEBRASKA

CITY           SKY/WX    TMP DP  RH WIND       PRES   REMARKS
NORFOLK        CLEAR     32  30  92 CALM      29.93R
ALBION         CLEAR     41  32  70 CALM      29.95R
BLAIR          CLEAR     37  36  95 CALM      29.96R FOG
FREMONT        PTCLDY    32  32 100 CALM      29.94F
TEKAMAH        PTCLDY    32  30  92 S6        29.95S WCI  26
WAYNE          CLEAR     31  30  96 S6        29.93S WCI  26
$$

NEZ050>053-065>068-078-088>093-211100-
SOUTHEAST NEBRASKA

CITY           SKY/WX    TMP DP  RH WIND       PRES   REMARKS
LINCOLN        CLEAR     32  30  92 CALM      29.97S
OMAHA EPPLEY   PTCLDY    34  30  85 CALM      29.96S
BEATRICE       CLOUDY    32  32  99 CALM      29.96F
FALLS CITY     CLEAR     40  39  97 CALM      29.97R
NEBRASKA CITY  CLEAR     41  39  91 CALM      29.97F
PLATTSMOUTH    CLEAR     41  37  84 CALM      29.95F
$$

NEZ044-045-051>053-067-211100-
OMAHA AREA

CITY           SKY/WX    TMP DP  RH WIND       PRES   REMARKS
OMAHA EPPLEY   PTCLDY    34  30  85 CALM      29.96S
BLAIR          CLEAR     37  36  95 CALM      29.96R FOG
FREMONT        PTCLDY    32  32 100 CALM      29.94F
MILLARD        CLEAR     35  34  96 CALM      29.97R FOG
OFFUTT AFB     CLEAR     39  37  91 CALM      29.95F
PLATTSMOUTH    CLEAR     41  37  84 CALM      29.95F
WAHOO          FAIR      32  30  94 CALM      29.95F
$$




USA.gov is the U.S. government's official web portal to all federal, state and local government web resources and services.